Regional Weather Roundup
Issued by NWS State College, PA

Home | Current Version | Previous Version | Text Only | Print | Product List | Glossary On
Versions: 1 2 3 4 5 6 7 8 9 10 11 12 13 14 15 16 17 18 19 20 21 22 23 24 25 26 27 28 29 30 31 32 33 34 35 36 37 38 39 40 41 42 43 44 45 46 47 48 49 50
000
ASUS41 KCTP 190110
RWRCTP

REGIONAL WEATHER ROUNDUP
NATIONAL WEATHER SERVICE STATE COLLEGE PA
900 PM EDT THU SEP 18 2014

Note: "fair" indicates few or no clouds below 12,000 feet with no
significant weather and/or obstructions to visibility.

* = STATION THAT DOES NOT REPORT PRECIPITATION /E.G. RAIN...SNOW...ETC/
    THUNDER OR FOG.

PAZ002>004-007>009-013>016-020>023-029>032-190200-
WESTERN PENNSYLVANIA

CITY           SKY/WX    TMP DP  RH WIND       PRES   REMARKS
ERIE           CLOUDY    58  50  75 E5        30.16R
MEADVILLE      CLEAR     53  48  83 N3        30.16R
FRANKLIN*      CLEAR     52  46  82 N5        30.17R
NEW CASTLE     NOT AVBL
BEAVER COUNTY  PTCLDY    57  50  77 N7        30.15R
BUTLER*        CLEAR     57  46  67 N5        30.16R
PITTSBURGH INT MOCLDY    62  49  62 N13       30.13R
PITTSBURGH     CLOUDY    63  42  46 CALM      30.12R
INDIANA*       CLOUDY    54  50  87 CALM      30.17R
LATROBE        CLEAR     55  52  88 CALM      30.13R
WASHINGTON CO* CLEAR     50  46  87 CALM      30.13R
$$

PAZ004>006-010>012-017>019-024>028-033>037-041-042-045-046-049>053-190200-
CENTRAL PENNSYLVANIA

CITY           SKY/WX    TMP DP  RH WIND       PRES   REMARKS
BRADFORD       CLEAR     48  45  89 NE3       30.16R
DUBOIS         CLEAR     56  48  74 N8        30.13R
CLEARFIELD     CLOUDY    54  50  86 N6        30.13R
JOHNSTOWN      CLEAR     56  42  59 NW6       30.14R
ALTOONA        CLEAR     52  47  83 CALM      30.12R
STATE COLLEGE  CLEAR     55  48  76 CALM      30.11R
WILLIAMSPORT   CLOUDY    61  50  67 VRB3      30.10R
SELINSGROVE    CLEAR     52  50  93 CALM      30.09R
FT INDIANTOWN  CLEAR     58  50  74 E1        30.09R
CAPITAL CITY   CLEAR     58  49  72 W5        30.08R
HARRISBURG     CLEAR     59  51  75 CALM      30.07R
YORK           CLEAR     51  48  89 W3        30.08R
$$

PAZ038>040-043-044-047-048-054-055-060>062-067>071-190200-
EASTERN PENNSYLVANIA

CITY           SKY/WX    TMP DP  RH WIND       PRES   REMARKS
SCRANTON       PTCLDY    57  46  66 CALM      30.11R
MOUNT POCONO   CLEAR     52  44  74 N8        30.11R
ALLENTOWN      CLEAR     63  42  46 NW3       30.07R
QUAKERTOWN*    CLEAR     55  48  76 CALM      30.08R
READING        CLEAR     63  46  54 CALM      30.06R
LANCASTER      CLEAR     61  44  53 NW5       30.07R
COATESVILLE    CLEAR     57  52  82 CALM      30.08R
POTTSTOWN      CLEAR     56  51  84 CALM      30.08R
BLUE BELL      PTCLDY    59  55  88 CALM      30.05R
DOYLESTOWN     PTCLDY    61  49  64 CALM      30.06R
WILLOW GROVE   NOT AVBL
NORTH PHILA    CLEAR     68  53  58 W5        30.06R
PHILADELPHIA   PTCLDY    67  55  65 SW8       30.06R
$$



USA.gov is the U.S. government's official web portal to all federal, state and local government web resources and services.